�������l�o���
Date,Time,MP-1(��Sv/h),MP-2(��Sv/h),MP-3(��Sv/h),MP-4(��Sv/h),MP-5(��Sv/h),MP-6(��Sv/h),MP-7(��Sv/h),MP-8(��Sv/h),����,����(m/s),���J
2020/03/26,00:00,0.710,1.031,0.679,1.258,0.900,0.402,0.707,0.669,�k��,4.3,��
2020/03/26,00:10,0.709,1.030,0.679,1.258,0.900,0.402,0.705,0.668,�k��,5.1,��
2020/03/26,00:20,0.710,1.031,0.678,1.259,0.900,0.401,0.706,0.666,�k��,6.2,��
2020/03/26,00:30,0.711,1.031,0.679,1.260,0.900,0.403,0.705,0.667,�k��,5.9,��
2020/03/26,00:40,0.710,1.031,0.678,1.258,0.899,0.401,0.704,0.670,���k��,5.3,��
2020/03/26,00:50,0.708,1.031,0.680,1.260,0.899,0.399,0.704,0.669,���k��,5.1,��
2020/03/26,01:00,0.710,1.032,0.680,1.261,0.901,0.401,0.703,0.668,���k��,4.0,��
2020/03/26,01:10,0.709,1.028,0.676,1.259,0.900,0.401,0.704,0.668,��,3.2,��
2020/03/26,01:20,0.709,1.030,0.677,1.259,0.901,0.400,0.705,0.668,��,3.1,��
2020/03/26,01:30,0.708,1.029,0.678,1.259,0.900,0.400,0.704,0.669,��,3.2,��
2020/03/26,01:40,0.708,1.029,0.676,1.259,0.901,0.401,0.704,0.667,��,4.3,��
2020/03/26,01:50,0.711,1.029,0.678,1.259,0.899,0.402,0.705,0.667,���쐼,4.5,��
2020/03/26,02:00,0.706,1.029,0.678,1.259,0.899,0.400,0.703,0.669,���쐼,2.6,��
2020/03/26,02:10,0.708,1.030,0.677,1.256,0.899,0.402,0.704,0.668,��,3.5,��
2020/03/26,02:20,0.709,1.031,0.678,1.258,0.899,0.401,0.703,0.668,��,3.6,��
2020/03/26,02:30,0.707,1.031,0.677,1.259,0.899,0.402,0.705,0.668,��,4.3,��
2020/03/26,02:40,0.708,1.030,0.680,1.259,0.900,0.402,0.703,0.667,���k��,2.9,��
2020/03/26,02:50,0.708,1.030,0.677,1.260,0.900,0.400,0.706,0.668,��,3.4,��
2020/03/26,03:00,0.708,1.031,0.677,1.259,0.900,0.401,0.704,0.668,��,2.6,��
2020/03/26,03:10,0.707,1.030,0.677,1.259,0.901,0.400,0.704,0.668,��,4.0,��
2020/03/26,03:20,0.706,1.029,0.676,1.260,0.901,0.400,0.704,0.668,��,4.8,��
2020/03/26,03:30,0.708,1.029,0.677,1.259,0.898,0.402,0.704,0.666,���쐼,3.7,��
2020/03/26,03:40,0.708,1.029,0.678,1.258,0.899,0.402,0.705,0.669,���쐼,3.0,��
2020/03/26,03:50,0.709,1.030,0.678,1.258,0.899,0.400,0.703,0.669,��,2.9,��
2020/03/26,04:00,0.708,1.029,0.677,1.259,0.901,0.400,0.705,0.667,��,2.0,��
2020/03/26,04:10,0.709,1.028,0.677,1.257,0.898,0.400,0.705,0.668,��,2.6,��
2020/03/26,04:20,0.710,1.028,0.676,1.258,0.897,0.400,0.704,0.668,��,4.8,��
2020/03/26,04:30,0.709,1.030,0.677,1.259,0.900,0.400,0.706,0.666,��,4.8,��
2020/03/26,04:40,0.709,1.030,0.676,1.258,0.898,0.399,0.704,0.669,��,4.4,��
2020/03/26,04:50,0.705,1.029,0.677,1.257,0.897,0.400,0.703,0.668,���쐼,2.8,��
2020/03/26,05:00,0.707,1.029,0.676,1.257,0.898,0.400,0.703,0.667,���쐼,2.6,��
2020/03/26,05:10,0.706,1.028,0.676,1.258,0.901,0.401,0.702,0.668,�쐼,2.2,��
2020/03/26,05:20,0.707,1.028,0.677,1.258,0.899,0.400,0.705,0.670,���쐼,1.4,��
2020/03/26,05:30,0.708,1.028,0.677,1.259,0.901,0.401,0.704,0.669,��,1.7,��
2020/03/26,05:40,0.706,1.028,0.676,1.257,0.899,0.400,0.703,0.667,��,2.5,��
2020/03/26,05:50,0.709,1.027,0.677,1.259,0.900,0.401,0.705,0.669,���k��,2.0,��
2020/03/26,06:00,0.707,1.029,0.678,1.259,0.897,0.399,0.705,0.668,���k��,2.8,��
2020/03/26,06:10,0.709,1.028,0.677,1.259,0.897,0.400,0.704,0.668,���k��,2.3,��
2020/03/26,06:20,0.708,1.029,0.677,1.260,0.897,0.400,0.705,0.668,���k��,3.8,��
2020/03/26,06:30,0.708,1.029,0.678,1.259,0.899,0.401,0.704,0.670,���k��,3.7,��
2020/03/26,06:40,0.708,1.028,0.677,1.260,0.898,0.401,0.704,0.669,��,2.5,��
2020/03/26,06:50,0.709,1.029,0.679,1.260,0.898,0.400,0.705,0.669,���k��,2.3,��
2020/03/26,07:00,0.710,1.028,0.676,1.260,0.901,0.400,0.705,0.669,��,2.3,��
2020/03/26,07:10,0.709,1.029,0.678,1.258,0.898,0.402,0.705,0.668,���쐼,2.3,��
2020/03/26,07:20,0.709,1.029,0.678,1.258,0.899,0.401,0.705,0.668,���쐼,2.2,��
2020/03/26,07:30,0.710,1.030,0.679,1.259,0.897,0.402,0.704,0.669,���쐼,2.6,��
2020/03/26,07:40,0.710,1.029,0.680,1.259,0.901,0.400,0.706,0.668,���쐼,2.2,��
2020/03/26,07:50,0.711,1.028,0.678,1.259,0.900,0.401,0.706,0.670,�쐼,2.0,��
2020/03/26,08:00,0.709,1.028,0.680,1.258,0.900,0.402,0.706,0.669,��,1.9,��
2020/03/26,08:10,0.710,1.030,0.678,1.259,0.898,0.402,0.705,0.667,�쓌,1.5,��
2020/03/26,08:20,0.711,1.029,0.677,1.260,0.899,0.402,0.704,0.669,��쓌,2.2,��
2020/03/26,08:30,0.711,1.029,0.679,1.258,0.898,0.401,0.705,0.670,��,2.0,��
2020/03/26,08:40,0.712,1.029,0.677,1.262,0.899,0.402,0.706,0.670,��쓌,2.0,��
2020/03/26,08:50,0.711,1.028,0.676,1.259,0.899,0.402,0.706,0.669,��,2.2,��
2020/03/26,09:00,0.711,1.031,0.678,1.260,0.900,0.402,0.705,0.669,��,2.8,��
2020/03/26,09:10,0.712,1.028,0.679,1.258,0.902,0.401,0.707,0.670,��,1.9,��
2020/03/26,09:20,0.710,1.030,0.679,1.261,0.901,0.401,0.704,0.669,��,1.1,��
2020/03/26,09:30,0.712,1.030,0.679,1.262,0.902,0.401,0.704,0.669,��쐼,1.5,��
2020/03/26,09:40,0.712,1.029,0.679,1.258,0.899,0.402,0.705,0.670,��쓌,1.7,��
2020/03/26,09:50,0.713,1.032,0.681,1.261,0.901,0.401,0.705,0.669,�쓌,1.1,��
2020/03/26,10:00,0.710,1.030,0.678,1.259,0.901,0.402,0.704,0.670,��,0.6,��
2020/03/26,10:10,0.711,1.031,0.679,1.260,0.901,0.402,0.704,0.670,���쓌,1.2,��
2020/03/26,10:20,0.711,1.028,0.677,1.261,0.901,0.403,0.703,0.670,�쓌,1.5,��
2020/03/26,10:30,0.711,1.029,0.677,1.259,0.901,0.401,0.704,0.669,�쓌,2.8,��
2020/03/26,10:40,0.711,1.031,0.678,1.261,0.900,0.403,0.705,0.672,�쓌,3.1,��
2020/03/26,10:50,0.712,1.030,0.681,1.263,0.901,0.402,0.705,0.671,��쓌,3.3,��
2020/03/26,11:00,0.712,1.032,0.682,1.260,0.903,0.401,0.704,0.669,��쓌,4.0,��
2020/03/26,11:10,0.712,1.030,0.680,1.262,0.901,0.402,0.704,0.670,��쓌,4.3,��
2020/03/26,11:20,0.714,1.029,0.680,1.262,0.901,0.403,0.703,0.668,��쓌,3.9,��
2020/03/26,11:30,0.712,1.033,0.680,1.264,0.902,0.402,0.707,0.669,��쓌,4.7,��
2020/03/26,11:40,0.710,1.030,0.678,1.261,0.898,0.401,0.705,0.668,��쓌,4.9,��
2020/03/26,11:50,0.712,1.032,0.679,1.263,0.899,0.402,0.705,0.669,��쓌,4.2,��
2020/03/26,12:00,0.710,1.033,0.678,1.261,0.898,0.401,0.706,0.669,��쓌,4.9,��
2020/03/26,12:10,0.711,1.031,0.680,1.263,0.899,0.402,0.706,0.668,��쓌,5.4,��
2020/03/26,12:20,0.711,1.032,0.680,1.262,0.900,0.403,0.707,0.667,�쓌,5.2,��
2020/03/26,12:30,0.710,1.033,0.679,1.263,0.898,0.403,0.707,0.667,�쓌,4.6,��
2020/03/26,12:40,0.711,1.035,0.679,1.261,0.899,0.404,0.708,0.667,�쓌,5.3,��
2020/03/26,12:50,0.710,1.033,0.678,1.264,0.902,0.405,0.706,0.668,��쓌,5.8,��
2020/03/26,13:00,0.710,1.032,0.680,1.263,0.899,0.403,0.705,0.668,��쓌,5.2,��
2020/03/26,13:10,0.712,1.034,0.678,1.262,0.902,0.404,0.704,0.667,��쓌,6.3,��
2020/03/26,13:20,0.713,1.033,0.679,1.262,0.902,0.404,0.706,0.666,��쓌,5.2,��
2020/03/26,13:30,0.710,1.034,0.679,1.263,0.900,0.403,0.705,0.667,��쓌,3.8,��
2020/03/26,13:40,0.712,1.034,0.678,1.264,0.902,0.403,0.705,0.668,��쓌,5.8,��
2020/03/26,13:50,0.712,1.031,0.679,1.263,0.902,0.404,0.706,0.668,��쓌,5.8,��
2020/03/26,14:00,0.711,1.033,0.679,1.263,0.900,0.405,0.707,0.667,��쓌,4.8,��
2020/03/26,14:10,0.710,1.034,0.678,1.264,0.902,0.402,0.706,0.668,��쓌,4.3,��
2020/03/26,14:20,0.712,1.035,0.679,1.264,0.901,0.404,0.706,0.666,��쓌,4.0,��
2020/03/26,14:30,0.712,1.035,0.679,1.265,0.902,0.402,0.706,0.669,��,4.6,��
2020/03/26,14:40,0.711,1.033,0.681,1.263,0.902,0.403,0.706,0.665,��쓌,3.9,��
2020/03/26,14:50,0.709,1.033,0.679,1.264,0.902,0.404,0.706,0.667,��쓌,4.3,��
2020/03/26,15:00,0.711,1.032,0.680,1.264,0.903,0.403,0.707,0.668,��쓌,4.4,��
2020/03/26,15:10,0.713,1.037,0.679,1.261,0.903,0.404,0.707,0.666,��쓌,4.6,��
2020/03/26,15:20,0.712,1.035,0.679,1.264,0.902,0.404,0.706,0.668,��쓌,4.8,��
2020/03/26,15:30,0.712,1.035,0.679,1.264,0.900,0.403,0.707,0.668,��쓌,5.1,��
2020/03/26,15:40,0.712,1.034,0.678,1.263,0.900,0.403,0.706,0.667,��쓌,5.6,��
2020/03/26,15:50,0.712,1.035,0.679,1.263,0.903,0.403,0.706,0.668,��쓌,5.7,��
2020/03/26,16:00,0.711,1.035,0.679,1.263,0.902,0.404,0.705,0.664,�쓌,4.4,��
2020/03/26,16:10,0.711,1.035,0.678,1.262,0.902,0.406,0.705,0.668,�쓌,3.6,��
2020/03/26,16:20,0.711,1.037,0.675,1.262,0.902,0.404,0.708,0.668,��쓌,5.2,��
2020/03/26,16:30,0.709,1.037,0.678,1.263,0.901,0.405,0.705,0.668,��쓌,3.9,��
2020/03/26,16:40,0.712,1.039,0.679,1.262,0.902,0.404,0.706,0.669,��쓌,3.9,��
2020/03/26,16:50,0.711,1.034,0.678,1.263,0.901,0.405,0.706,0.669,��쓌,3.9,��
2020/03/26,17:00,0.710,1.038,0.679,1.263,0.902,0.404,0.706,0.669,��쓌,4.6,��
2020/03/26,17:10,0.714,1.037,0.680,1.259,0.901,0.404,0.705,0.670,��쓌,4.2,��
2020/03/26,17:20,0.713,1.037,0.680,1.262,0.901,0.404,0.707,0.671,��,4.0,��
2020/03/26,17:30,0.714,1.037,0.682,1.262,0.900,0.404,0.705,0.669,��쓌,3.5,��
2020/03/26,17:40,0.714,1.035,0.681,1.261,0.900,0.405,0.707,0.670,��쓌,3.2,��
2020/03/26,17:50,0.712,1.037,0.681,1.259,0.902,0.403,0.707,0.671,�쓌,3.8,��
2020/03/26,18:00,0.712,1.036,0.680,1.261,0.903,0.404,0.706,0.670,��쓌,4.3,��
2020/03/26,18:10,0.714,1.038,0.681,1.262,0.903,0.404,0.706,0.670,��,5.2,��
2020/03/26,18:20,0.712,1.035,0.679,1.263,0.903,0.402,0.707,0.669,��,3.3,��
2020/03/26,18:30,0.713,1.038,0.679,1.265,0.903,0.405,0.707,0.669,��,2.8,��
2020/03/26,18:40,0.713,1.038,0.682,1.262,0.901,0.404,0.707,0.669,��,2.3,��
2020/03/26,18:50,0.713,1.036,0.679,1.263,0.903,0.404,0.707,0.669,��,2.3,��
2020/03/26,19:00,0.714,1.035,0.680,1.260,0.901,0.404,0.706,0.669,��쐼,1.1,��
2020/03/26,19:10,0.713,1.034,0.679,1.263,0.902,0.403,0.707,0.668,���k��,0.9,��
2020/03/26,19:20,0.714,1.035,0.681,1.260,0.902,0.403,0.706,0.670,-,CALM,��
2020/03/26,19:30,0.711,1.036,0.680,1.262,0.903,0.401,0.708,0.668,-,CALM,��
2020/03/26,19:40,0.712,1.035,0.680,1.261,0.903,0.404,0.707,0.669,�k��,0.8,��
2020/03/26,19:50,0.712,1.035,0.679,1.261,0.903,0.403,0.707,0.670,�k,1.2,��
2020/03/26,20:00,0.711,1.034,0.680,1.260,0.902,0.403,0.707,0.667,-,CALM,��
2020/03/26,20:10,0.713,1.034,0.684,1.261,0.901,0.403,0.706,0.668,���k��,1.1,��
2020/03/26,20:20,0.712,1.036,0.680,1.258,0.902,0.404,0.706,0.670,�k��,2.2,��
2020/03/26,20:30,0.711,1.034,0.679,1.262,0.904,0.405,0.707,0.671,�k��,1.4,��
2020/03/26,20:40,0.712,1.032,0.681,1.259,0.902,0.404,0.707,0.670,��,1.2,��
2020/03/26,20:50,0.713,1.035,0.681,1.260,0.902,0.403,0.706,0.668,��,0.9,��
2020/03/26,21:00,0.712,1.033,0.680,1.259,0.903,0.403,0.707,0.668,�쐼,1.5,��
2020/03/26,21:10,0.712,1.034,0.680,1.259,0.901,0.404,0.707,0.669,�쐼,1.4,��
2020/03/26,21:20,0.711,1.033,0.680,1.262,0.902,0.403,0.707,0.669,���쐼,1.5,��
2020/03/26,21:30,0.713,1.031,0.678,1.261,0.903,0.403,0.707,0.670,���k��,1.1,��
2020/03/26,21:40,0.712,1.032,0.679,1.262,0.902,0.402,0.706,0.668,�쐼,1.5,��
2020/03/26,21:50,0.712,1.034,0.680,1.261,0.903,0.402,0.708,0.668,�쐼,1.9,��
2020/03/26,22:00,0.712,1.031,0.682,1.262,0.902,0.402,0.707,0.669,��,2.0,��
2020/03/26,22:10,0.711,1.031,0.677,1.262,0.903,0.403,0.705,0.670,�쐼,1.1,��
2020/03/26,22:20,0.711,1.031,0.679,1.261,0.900,0.402,0.706,0.670,��,1.5,��
2020/03/26,22:30,0.711,1.031,0.680,1.262,0.901,0.403,0.705,0.669,��,1.1,��
2020/03/26,22:40,0.712,1.032,0.679,1.262,0.900,0.404,0.706,0.668,���k��,0.6,��
2020/03/26,22:50,0.712,1.032,0.679,1.260,0.902,0.402,0.705,0.669,-,CALM,��
2020/03/26,23:00,0.712,1.031,0.679,1.257,0.902,0.403,0.706,0.670,�k�k��,1.1,��
2020/03/26,23:10,0.711,1.031,0.680,1.263,0.901,0.401,0.705,0.669,�k�k��,1.7,��
2020/03/26,23:20,0.712,1.032,0.679,1.260,0.902,0.402,0.705,0.668,�k�k��,1.1,��
2020/03/26,23:30,0.711,1.032,0.679,1.260,0.901,0.403,0.705,0.669,�k��,0.9,��
2020/03/26,23:40,0.713,1.034,0.678,1.260,0.902,0.403,0.706,0.670,�k�k��,1.7,��
2020/03/26,23:50,0.711,1.032,0.679,1.258,0.902,0.401,0.704,0.667,�k��,1.5,��
